SCP
0 0 0 0 0 0 0 0 0 0 0 0 0 0 0 0 0 0 0 0 0 0 0 -0 -0 -0 -0 -0 0 0 0 0 0 0 0 0 0 0
0 0 0 0 0 0 0 0 0 0 0 0 0 0 0 0 0 0 0 0 -0 -0 -0 -0 -0 -0 -0 -0 -0 -0 -0 0 0 0 0 0 0 0
0 0 0 0 0 0 0 0 0 0 0 0 0 0 0 0 0 0 0 0 0 -0 -0 -0 -0 -0 -0 -0 -0 -0 0 -0 -0 -0 0 0 0 -0
0 0 0 0 0 0 0 -0 -0 0 0 0 0 0 0 0 0 0 0 0 0 -0 -0 -0 -0 -0 -0 -0 -0 -0 -0 0 0 0 -0 0 0 0
0 -0 -0 -0 -0 -0 0 0 0 0 0 0 0 0 0 0 0 0 0 0 0 -0 -0 -0 -0 -0 -0 -0 -0 -0 -0 0 0 0 0 -0 -0 -0
-0 -0 -0 0 -0 -0 0 -0 0 0 0 0 0 0 0 0 0 0 0 0 0 0 0 0 -0 -0 -0 -0 -0 0 -0 0 0 0 0 0 0 -0
0 0 0 0 -0 0 0 0 0 0 0 0 0 0 0 0 0 0 0 0 0 0 0 0 0 0 0 -0 -0 -0 -0 0 0 0 0 0 0 0
0 0 0 0 0 0 0 -0 0 0 0 0 0 0 0 0 0 0 0 0 0 0 0 0 0 -0 -0 -0 -0 -0 -0 0 0 0 0 0 0 0
0 0 0 0 0 -0 0 0 0 0 0 0 0 0 0 0 -0 -0 -0 0 0 0 0 0 0 0 0 -0 -0 -0 0 0 0 0 0 -0 -0 0
-0 0 -0 0 0 0 0 0 0 0 0 0 0 -0 -0 0 0 0 0 0 0 0 0 -0 -0 -0 -0 -0 -0 0 0 0 -0 -0 0 0 0 0
-0 -0 0 -0 0 0 0 0 0 0 0 0 0 -0 0 0 0 0 -0 -0 0 0 0 -0 -0 -0 0 -0 -0 0 0 -0 0 0 0 0 0 -0
0 -0 0 -0 -0 0 0 0 0 0 0 0 -0 0 0 0 0 0 0 -0 0 0 0 0 0 0 0 0 -0 0 -0 0 0 0 0 -0 -0 -0
0 -0 -0 -0 0 -0 -0 -0 -0 -0 0 -0 0 0 0 0 -0 -0 0 0 0 -0 -0 0 -0 0 0 -0 -0 0 0 -0 -0 0 -0 -0 -0 -0
0 -0 0 0 0 0 0 -0 -0 0 0 0 0 0 -0 -0 0 0 0 0 0 0 0 0 -0 -0 0 0 0 0 0 0 0 0 0 0 0 -0
-0 0 0 -0 -0 0 -0 -0 0 0 0 0 0 0 0 0 0 -0 0 0 0 0 0 0 0 0 0 0 0 0 0 0 -0 -0 -0 0 -0 -0
0 0 0 0 0 -0 -0 0 0 -0 0 0 0 0 0 0 0 0 0 0 -0 0 0 0 0 -0 0 0 0 0 0 0 0 0 0 0 0 -0
0 0 0 0 0 0 0 0 -0 -0 -0 -0 -0 0 0 0 -0 -0 0 -0 -0 -0 -0 0 0 -0 -0 0 0 -0 -0 0 0 0 -0 -0 -0 0
0 0 0 -0 0 0 0 0 0 0 -0 -0 -0 -0 0 0 0 -0 -0 0 0 0 0 0 0 -0 0 -0 -0 0 0 -0 0 -0 -0 0 -0 0
0 0 0 0 0 0 0 0 0 0 0 -0 0 -0 0 0 -0 -0 0 0 0 0 0 0 0 0 0 0 0 0 0 -0 0 0 0 0 -0 0
0 0 -0 -0 0 -0 0 0 0 0 0 -0 0 0 0 0 0 0 -0 -0 0 0 0 0 0 0 0 -0 0 0 0 0 0 0 0 0 0 0
0 0 0 -0 -0 -0 -0 0 0 0 -0 -0 0 0 0 0 0 0 0 0 0 -0 0 0 0 0 0 0 0 0 0 0 0 0 0 -0 0 0
0 0 -0 -0 -0 -0 -0 -0 -0 -0 0 0 0 0 0 0 -0 0 0 0 0 0 0 0 0 0 0 0 0 0 0 0 0 0 0 0 0 0
-0 -0 -0 -0 -0 -0 -0 -0 0 0 0 0 0 0 0 -0 0 0 0 -0 0 0 0 0 0 0 0 -0 0 0 0 0 0 0 0 0 0 0
Wind_Speed_500mb
31 29 28 27 29 32 31 31 27 20 23 16 19 12 17 19 15 14 12 10 10 9 7 8 29 40 45 45 62 79 64 64 58 52 48 46 46 41
27 25 26 25 28 24 26 25 26 29 16 15 16 18 32 15 19 21 16 28 29 16 10 12 11 18 25 48 51 57 56 60 60 57 53 43 36 37
21 17 18 18 20 21 25 25 29 22 29 19 12 29 20 27 27 29 43 50 51 51 48 48 41 44 46 54 53 44 40 37 40 39 39 42 41 26
23 21 24 21 19 13 11 13 19 21 19 10 19 31 30 36 36 40 41 44 40 36 37 37 40 40 39 37 37 36 36 37 38 37 36 35 30 28
25 25 24 19 18 19 16 12 17 16 24 16 36 40 32 36 41 45 41 41 36 39 44 34 45 48 44 44 40 37 32 29 28 26 26 27 26 22
26 25 20 17 15 12 12 17 21 22 25 26 51 48 41 38 40 48 51 44 46 42 43 35 33 38 40 38 37 35 30 25 23 23 23 24 25 25
21 23 14 12 6 11 20 23 29 27 40 50 41 40 47 39 38 49 55 50 49 46 46 42 41 38 35 30 30 31 31 27 24 26 28 27 26 26
24 33 29 22 17 23 28 22 23 31 41 45 49 47 43 39 45 52 57 50 46 40 38 36 30 38 40 38 33 27 28 25 26 27 26 27 28 27
35 32 31 31 35 33 36 32 30 26 20 44 36 39 48 58 59 51 46 41 38 31 32 38 31 40 39 40 35 33 33 28 26 25 25 25 26 27
31 39 30 28 30 33 32 34 30 29 34 40 39 40 59 56 47 42 40 41 35 31 29 39 31 33 37 36 32 28 27 27 25 25 27 27 28 28
38 41 38 36 38 40 44 43 37 35 38 46 60 62 56 53 42 32 36 34 31 29 28 33 32 34 29 29 27 29 29 28 27 29 31 34 33 27
38 45 42 40 36 40 46 47 55 57 69 70 56 50 51 39 30 25 18 31 31 31 27 34 34 36 31 27 32 34 30 30 30 31 35 35 27 24
30 42 47 45 51 54 62 65 68 69 65 52 40 32 31 35 17 25 24 23 26 29 31 24 22 16 26 28 22 24 32 36 32 29 33 30 24 22
31 37 38 41 42 40 43 49 53 52 42 35 34 30 29 25 33 32 30 37 32 27 13 15 21 24 28 28 27 22 21 21 24 33 34 26 20 21
29 36 37 32 30 36 47 46 42 36 39 37 34 30 28 24 37 32 32 29 32 30 24 27 26 25 23 25 26 22 22 17 13 10 14 12 13 16
31 34 39 28 33 40 36 31 29 28 27 27 29 31 34 26 27 28 29 27 31 30 29 29 28 24 23 21 20 20 18 17 16 15 15 14 12 9
41 39 38 35 30 30 33 23 27 25 23 27 27 25 31 26 32 28 24 23 26 29 28 24 23 25 25 22 17 15 17 16 13 14 13 9 7 5
29 30 30 27 24 25 25 27 23 27 25 21 28 27 24 19 20 30 26 23 24 24 23 21 22 23 18 16 20 17 15 13 10 6 5 7 7 6
23 24 28 27 27 26 26 26 28 24 27 25 22 21 22 21 28 26 16 21 22 22 19 15 12 5 9 14 12 17 12 11 10 5 3 3 5 1
17 19 20 24 27 24 22 24 22 25 21 25 20 23 26 17 19 18 21 20 21 19 17 13 11 10 12 19 15 14 16 14 4 6 6 6 5 12
15 15 14 22 23 24 30 26 29 22 27 25 19 20 12 18 20 19 19 19 17 17 14 13 9 14 14 22 20 15 10 15 16 7 4 10 13 13
15 16 19 17 22 26 33 34 37 30 21 18 17 14 16 19 20 18 20 17 13 17 21 10 18 13 9 9 9 10 9 7 4 6 15 11 4 7
14 16 20 22 25 28 33 28 19 17 15 20 21 21 21 22 21 19 18 17 18 18 18 17 11 6 9 4 3 8 7 10 17 17 11 10 19 22
Wind_Direction_500mb
294 289 289 281 273 270 263 255 252 266 278 280 290 285 245 196 237 238 254 229 254 248 180 84 109 125 151 156 148 141 143 153 151 152 150 146 146 151
302 294 284 279 276 267 257 254 245 247 247 264 314 240 177 172 158 173 177 182 162 182 172 156 158 113 120 121 121 121 117 118 124 124 130 137 136 134
307 299 292 282 280 258 255 247 235 233 230 260 301 160 164 172 151 143 134 124 111 119 131 122 121 127 131 130 128 132 121 116 121 122 124 125 133 139
301 296 292 282 274 259 240 224 215 209 197 171 151 149 153 143 134 122 120 112 110 100 94 90 92 93 93 98 104 113 113 116 114 123 133 141 141 129
305 302 296 286 258 260 239 219 176 177 170 177 138 135 144 130 115 110 112 108 101 104 100 100 98 93 89 91 91 94 95 97 100 114 123 127 128 126
320 315 311 283 256 226 186 181 160 165 170 166 142 134 133 129 131 113 104 103 106 103 100 98 101 100 96 92 94 93 89 90 101 117 126 122 122 122
354 3 331 272 183 184 171 163 162 172 153 157 150 151 137 134 121 115 108 103 95 96 88 84 90 95 99 105 101 98 102 110 116 115 115 118 117 117
21 40 44 71 130 140 157 152 157 159 159 165 154 157 144 140 129 123 115 110 95 94 96 94 92 98 105 106 107 107 103 115 119 116 115 115 115 113
49 46 61 82 112 122 125 133 139 165 167 166 171 155 130 124 116 104 93 90 99 104 102 97 94 102 103 99 101 108 112 109 108 111 115 115 119 116
64 53 73 85 97 114 129 143 147 152 158 152 139 132 127 109 98 100 117 106 101 103 102 103 107 109 113 108 105 99 98 99 99 107 118 119 117 113
68 58 83 92 101 112 123 121 121 122 133 123 123 125 113 113 117 118 117 110 105 105 109 109 109 108 104 99 99 99 100 96 96 104 111 114 108 103
70 72 80 86 95 112 116 116 116 119 123 124 117 117 115 121 116 121 142 120 117 112 114 115 117 113 95 85 89 94 96 94 98 105 110 105 99 93
82 86 90 93 95 98 109 112 114 121 117 107 104 117 123 106 88 99 108 138 127 128 133 112 125 132 119 121 110 100 88 84 84 105 109 105 104 111
103 110 108 109 113 109 114 112 114 122 117 117 119 122 112 106 107 110 100 111 117 125 123 111 127 121 121 122 122 117 110 109 106 96 97 98 106 132
118 128 121 122 111 116 118 109 111 119 116 113 122 128 131 124 102 91 94 104 105 102 106 118 119 118 119 119 118 118 118 120 119 96 81 87 56 56
104 125 131 122 128 116 123 118 127 116 128 135 123 134 133 110 115 109 104 102 102 103 106 109 110 112 113 114 118 125 133 133 133 127 119 110 104 90
102 112 130 145 124 115 142 135 127 121 127 124 135 135 141 129 122 114 116 107 108 112 111 107 111 117 119 120 127 134 136 138 146 160 147 114 110 75
107 103 114 129 137 133 128 141 140 128 113 125 135 126 130 136 135 128 116 121 120 120 117 116 115 117 123 123 109 124 132 143 164 187 135 183 135 107
112 107 112 124 125 128 131 137 136 126 130 137 136 141 133 128 130 123 144 136 127 128 128 128 129 137 159 105 160 149 118 145 153 146 155 52 90 191
117 110 105 125 129 120 135 127 120 131 123 138 130 127 136 138 131 131 125 126 133 137 127 123 94 66 74 108 123 170 142 149 181 177 175 181 208 281
132 126 128 130 132 127 132 136 136 137 132 130 124 136 131 131 143 129 123 133 133 135 136 141 139 100 115 112 102 103 148 178 168 165 207 289 254 274
115 134 131 119 124 133 136 126 133 136 152 157 136 135 130 126 126 125 134 143 151 138 131 126 125 147 174 169 102 146 160 155 65 51 69 58 329 310
108 111 127 124 132 130 134 142 140 141 144 134 135 134 131 127 131 133 133 121 120 120 124 131 141 155 128 158 114 156 203 229 249 269 219 343 359 12
Wind_Speed_850mb
31 29 28 27 29 32 31 31 27 20 23 16 19 12 17 19 15 14 12 10 10 9 7 8 29 40 45 45 62 79 64 64 58 52 48 46 46 41
27 25 26 25 28 24 26 25 26 29 16 15 16 18 32 15 19 21 16 28 29 16 10 12 11 18 25 48 51 57 56 60 60 57 53 43 36 37
21 17 18 18 20 21 25 25 29 22 29 19 12 29 20 27 27 29 43 50 51 51 48 48 41 44 46 54 53 44 40 37 40 39 39 42 41 26
23 21 24 21 19 13 11 13 19 21 19 10 19 31 30 36 36 40 41 44 40 36 37 37 40 40 39 37 37 36 36 37 38 37 36 35 30 28
25 25 24 19 18 19 16 12 17 16 24 16 36 40 32 36 41 45 41 41 36 39 44 34 45 48 44 44 40 37 32 29 28 26 26 27 26 22
26 25 20 17 15 12 12 17 21 22 25 26 51 48 41 38 40 48 51 44 46 42 43 35 33 38 40 38 37 35 30 25 23 23 23 24 25 25
21 23 14 12 6 11 20 23 29 27 40 50 41 40 47 39 38 49 55 50 49 46 46 42 41 38 35 30 30 31 31 27 24 26 28 27 26 26
24 33 29 22 17 23 28 22 23 31 41 45 49 47 43 39 45 52 57 50 46 40 38 36 30 38 40 38 33 27 28 25 26 27 26 27 28 27
35 32 31 31 35 33 36 32 30 26 20 44 36 39 48 58 59 51 46 41 38 31 32 38 31 40 39 40 35 33 33 28 26 25 25 25 26 27
31 39 30 28 30 33 32 34 30 29 34 40 39 40 59 56 47 42 40 41 35 31 29 39 31 33 37 36 32 28 27 27 25 25 27 27 28 28
38 41 38 36 38 40 44 43 37 35 38 46 60 62 56 53 42 32 36 34 31 29 28 33 32 34 29 29 27 29 29 28 27 29 31 34 33 27
38 45 42 40 36 40 46 47 55 57 69 70 56 50 51 39 30 25 18 31 31 31 27 34 34 36 31 27 32 34 30 30 30 31 35 35 27 24
30 42 47 45 51 54 62 65 68 69 65 52 40 32 31 35 17 25 24 23 26 29 31 24 22 16 26 28 22 24 32 36 32 29 33 30 24 22
31 37 38 41 42 40 43 49 53 52 42 35 34 30 29 25 33 32 30 37 32 27 13 15 21 24 28 28 27 22 21 21 24 33 34 26 20 21
29 36 37 32 30 36 47 46 42 36 39 37 34 30 28 24 37 32 32 29 32 30 24 27 26 25 23 25 26 22 22 17 13 10 14 12 13 16
31 34 39 28 33 40 36 31 29 28 27 27 29 31 34 26 27 28 29 27 31 30 29 29 28 24 23 21 20 20 18 17 16 15 15 14 12 9
41 39 38 35 30 30 33 23 27 25 23 27 27 25 31 26 32 28 24 23 26 29 28 24 23 25 25 22 17 15 17 16 13 14 13 9 7 5
29 30 30 27 24 25 25 27 23 27 25 21 28 27 24 19 20 30 26 23 24 24 23 21 22 23 18 16 20 17 15 13 10 6 5 7 7 6
23 24 28 27 27 26 26 26 28 24 27 25 22 21 22 21 28 26 16 21 22 22 19 15 12 5 9 14 12 17 12 11 10 5 3 3 5 1
17 19 20 24 27 24 22 24 22 25 21 25 20 23 26 17 19 18 21 20 21 19 17 13 11 10 12 19 15 14 16 14 4 6 6 6 5 12
15 15 14 22 23 24 30 26 29 22 27 25 19 20 12 18 20 19 19 19 17 17 14 13 9 14 14 22 20 15 10 15 16 7 4 10 13 13
15 16 19 17 22 26 33 34 37 30 21 18 17 14 16 19 20 18 20 17 13 17 21 10 18 13 9 9 9 10 9 7 4 6 15 11 4 7
14 16 20 22 25 28 33 28 19 17 15 20 21 21 21 22 21 19 18 17 18 18 18 17 11 6 9 4 3 8 7 10 17 17 11 10 19 22
Wind_Direction_850mb
294 289 289 281 273 270 263 255 252 266 278 280 290 285 245 196 237 238 254 229 254 248 180 84 109 125 151 156 148 141 143 153 151 152 150 146 146 151
302 294 284 279 276 267 257 254 245 247 247 264 314 240 177 172 158 173 177 182 162 182 172 156 158 113 120 121 121 121 117 118 124 124 130 137 136 134
307 299 292 282 280 258 255 247 235 233 230 260 301 160 164 172 151 143 134 124 111 119 131 122 121 127 131 130 128 132 121 116 121 122 124 125 133 139
301 296 292 282 274 259 240 224 215 209 197 171 151 149 153 143 134 122 120 112 110 100 94 90 92 93 93 98 104 113 113 116 114 123 133 141 141 129
305 302 296 286 258 260 239 219 176 177 170 177 138 135 144 130 115 110 112 108 101 104 100 100 98 93 89 91 91 94 95 97 100 114 123 127 128 126
320 315 311 283 256 226 186 181 160 165 170 166 142 134 133 129 131 113 104 103 106 103 100 98 101 100 96 92 94 93 89 90 101 117 126 122 122 122
354 3 331 272 183 184 171 163 162 172 153 157 150 151 137 134 121 115 108 103 95 96 88 84 90 95 99 105 101 98 102 110 116 115 115 118 117 117
21 40 44 71 130 140 157 152 157 159 159 165 154 157 144 140 129 123 115 110 95 94 96 94 92 98 105 106 107 107 103 115 119 116 115 115 115 113
49 46 61 82 112 122 125 133 139 165 167 166 171 155 130 124 116 104 93 90 99 104 102 97 94 102 103 99 101 108 112 109 108 111 115 115 119 116
64 53 73 85 97 114 129 143 147 152 158 152 139 132 127 109 98 100 117 106 101 103 102 103 107 109 113 108 105 99 98 99 99 107 118 119 117 113
68 58 83 92 101 112 123 121 121 122 133 123 123 125 113 113 117 118 117 110 105 105 109 109 109 108 104 99 99 99 100 96 96 104 111 114 108 103
70 72 80 86 95 112 116 116 116 119 123 124 117 117 115 121 116 121 142 120 117 112 114 115 117 113 95 85 89 94 96 94 98 105 110 105 99 93
82 86 90 93 95 98 109 112 114 121 117 107 104 117 123 106 88 99 108 138 127 128 133 112 125 132 119 121 110 100 88 84 84 105 109 105 104 111
103 110 108 109 113 109 114 112 114 122 117 117 119 122 112 106 107 110 100 111 117 125 123 111 127 121 121 122 122 117 110 109 106 96 97 98 106 132
118 128 121 122 111 116 118 109 111 119 116 113 122 128 131 124 102 91 94 104 105 102 106 118 119 118 119 119 118 118 118 120 119 96 81 87 56 56
104 125 131 122 128 116 123 118 127 116 128 135 123 134 133 110 115 109 104 102 102 103 106 109 110 112 113 114 118 125 133 133 133 127 119 110 104 90
102 112 130 145 124 115 142 135 127 121 127 124 135 135 141 129 122 114 116 107 108 112 111 107 111 117 119 120 127 134 136 138 146 160 147 114 110 75
107 103 114 129 137 133 128 141 140 128 113 125 135 126 130 136 135 128 116 121 120 120 117 116 115 117 123 123 109 124 132 143 164 187 135 183 135 107
112 107 112 124 125 128 131 137 136 126 130 137 136 141 133 128 130 123 144 136 127 128 128 128 129 137 159 105 160 149 118 145 153 146 155 52 90 191
117 110 105 125 129 120 135 127 120 131 123 138 130 127 136 138 131 131 125 126 133 137 127 123 94 66 74 108 123 170 142 149 181 177 175 181 208 281
132 126 128 130 132 127 132 136 136 137 132 130 124 136 131 131 143 129 123 133 133 135 136 141 139 100 115 112 102 103 148 178 168 165 207 289 254 274
115 134 131 119 124 133 136 126 133 136 152 157 136 135 130 126 126 125 134 143 151 138 131 126 125 147 174 169 102 146 160 155 65 51 69 58 329 310
108 111 127 124 132 130 134 142 140 141 144 134 135 134 131 127 131 133 133 121 120 120 124 131 141 155 128 158 114 156 203 229 249 269 219 343 359 12